[[{"header":{"parameterUnit":"m.s-1","parameterCategory":1,"la1":30.2991,"la2":30.254,"lo1":-89.0895,"lo2":-89.0444,"dy":0.0017,"dx":0.0017,"nx":28,"ny":28,"refTime":"2025-06-17T09:00:00:Z","depth":0,"parameterNumber":2,"parameterNumberName":"U-component_of_WINDS"},"data":[0,0,0,0,0,0,0,0,0,0,0,0,0,0,0,0,0,0,0,0,0,0,0,0,0,0,0,0,0,0,0,0,0,0,0,0,0,0,0,0,0,0,0,0,0,0,0,0,0,0,0,0,0,0,0,0,0,0,2.9397,2.9398,0,2.9528,2.953,2.9531,2.9512,2.951,2.9508,2.9506,2.9642,2.9647,2.9653,0,0,0,0,0,0,0,0,0,0,0,0,0,2.9129,2.9134,2.9397,2.9398,2.94,2.9528,2.953,2.9531,2.9513,2.951,2.9507,2.9505,2.964,2.9646,2.9653,0,0,0,0,0,0,0,0,0,0,0,0,0,2.9251,2.9135,2.9396,2.9406,2.9408,2.9528,2.953,2.9532,2.9513,2.951,2.9507,2.9503,2.9637,2.9646,2.9654,2.9773,0,0,2.968,2.9684,0,0,0,0,0,0,0,0,2.9244,2.9261,2.9403,2.9405,2.9408,2.95,2.9485,2.9613,2.9514,2.9473,2.9506,2.9502,2.9597,2.9609,2.9641,2.9779,2.9785,2.9681,2.9686,2.969,2.9692,0,0,0,0,0,0,0,2.9236,2.9255,2.9449,2.9405,2.9408,2.9403,2.9417,2.9509,2.9552,2.9477,2.9476,2.9491,2.9598,2.9633,2.9644,2.9787,2.9681,2.9688,2.9693,2.9697,3.0026,3.0029,0,0,0,0,0,0,2.9225,2.9248,2.9444,2.9453,2.9316,2.9411,2.9426,2.9474,2.9551,2.956,2.9494,2.949,2.962,2.9634,2.9649,2.979,2.969,2.9698,2.9702,3.0022,3.0027,3.0031,0,0,0,0,0,0,2.9219,2.9242,2.9439,2.935,2.9375,2.9419,2.9473,2.9478,2.9513,2.9564,2.9572,2.9521,2.9618,2.9637,2.9741,2.9794,2.9701,2.9709,3.0018,3.0024,3.0029,3.0075,0,0,0,0,0,0,2.9211,2.924,2.9286,2.9351,2.938,2.953,2.9476,2.9483,2.9527,2.9523,2.9592,2.96,2.9617,2.9729,2.975,2.9804,2.9716,3.0013,3.002,3.0027,3.0068,3.0081,3.0092,0,0,0,0,0,2.9202,2.9295,2.9289,2.9312,2.9438,2.9533,2.9549,2.9566,2.9532,2.9578,2.961,2.9598,2.9786,2.9739,2.9763,2.9821,3.001,3.0018,3.0026,3.0063,3.0079,3.0091,0,0,0,0,0,0,2.9236,2.9304,2.9297,2.9414,2.9468,2.9529,2.9588,2.9582,2.9646,2.964,2.9658,2.9674,2.9779,2.9811,2.9758,2.9938,2.9893,2.9906,2.9913,2.9928,2.9939,2.9928,2.9723,0,0,0,0,0,2.9257,2.9328,2.9384,2.9481,2.9509,2.9544,2.9586,2.9594,2.965,2.9673,2.9713,2.9769,2.9839,2.9886,2.9955,3.0074,3.0087,3.0125,3.0137,3.0146,3.0156,3.0219,3.0236,3.0057,3.0057,3.0057,0,0,2.9301,2.9347,2.9391,2.9489,2.9532,2.9604,2.9563,2.9643,2.9696,2.9685,2.9785,2.9817,2.988,2.9991,3.0042,3.0021,3.0209,3.0157,3.0163,3.0169,3.0229,3.0246,3.0261,3.0063,3.0062,3.0061,0,0,2.9417,2.9461,2.9545,2.9588,2.9652,2.9675,2.9695,2.9758,2.9778,2.9879,2.9871,2.9935,3.0058,3.0102,3.0141,3.0273,3.0263,3.0295,3.0354,3.0415,3.0429,3.0441,3.0485,3.0501,3.0306,3.0306,3.0306,0,2.9464,2.9573,2.9589,2.9669,2.9711,2.9704,2.9789,2.983,2.9914,2.9943,2.9918,3.007,3.0113,3.0232,3.0264,3.0297,3.0319,3.0286,3.0425,3.0438,3.045,3.0492,3.0509,3.0309,3.0309,3.0308,3.0308,0,2.9626,2.9702,2.9762,2.9841,2.9891,2.9973,3.0001,3.005,3.0053,3.0078,3.018,3.023,3.0307,3.0337,3.0342,3.0457,3.0441,3.0421,3.0375,3.047,3.0509,3.0526,3.0314,3.0312,3.0311,3.0311,0,0,2.9767,2.9853,2.9874,2.9909,2.9979,3.0038,3.0119,3.0193,3.0233,3.0291,3.0358,3.0462,3.0442,3.0486,3.0496,3.055,3.0647,3.0523,3.0524,3.0541,3.0774,3.0786,3.0805,3.0642,3.0645,3.0648,3.0767,0,2.9887,3.003,3.0046,3.0173,3.0241,3.0235,3.0305,3.0355,3.0381,3.0443,3.0471,3.0543,3.0514,3.0539,3.0592,3.0624,3.0694,3.0616,3.0703,3.0706,3.0684,3.0826,3.084,3.095,3.0783,3.0786,3.0788,0,3.0047,3.0108,3.0241,3.0299,3.0328,3.0391,3.0459,3.0519,3.0575,3.059,3.0638,3.0641,3.0723,3.0676,3.0789,3.0736,3.0773,3.0794,3.0798,3.0805,3.075,3.0833,3.0987,3.1002,3.0813,3.0811,3.0809,0,3.0132,3.0248,3.0341,3.0372,3.0443,3.0486,3.0518,3.0571,3.0614,3.0674,3.0701,3.0771,3.0809,3.0862,3.0883,3.0847,3.0994,3.0949,3.1007,3.1006,3.1036,3.1033,3.1194,3.1065,3.1064,3.1064,3.1064,0,3.0264,3.0345,3.038,3.0437,3.0527,3.0545,3.0634,3.0663,3.071,3.0772,3.0773,3.0831,3.0857,3.0919,3.0936,3.1025,3.1044,3.1056,3.1059,3.1055,3.1052,3.1077,3.1068,3.1068,3.1067,3.1067,3.1066,0,3.0373,3.04,3.0501,3.056,3.0576,3.0639,3.0689,3.0744,3.0768,3.0847,3.0867,3.0905,3.0978,3.1005,3.1095,3.1106,3.1209,3.1207,3.1189,3.1189,3.1243,3.1237,3.1423,3.1447,3.1305,3.1306,3.1308,0,3.0453,3.0515,3.0579,3.0621,3.0653,3.072,3.0763,3.0784,3.0829,3.0896,3.0943,3.1015,3.1074,3.1191,3.1227,3.1295,3.1293,3.1354,3.1303,3.1296,3.129,3.1285,3.129,3.1362,3.1364,3.1365,3.1366,0,3.0592,3.0602,3.0664,3.0731,3.0782,3.0836,3.0888,3.0922,3.095,3.1,3.1074,3.112,3.121,3.1281,3.1351,3.1383,3.1379,3.1382,3.1398,3.1392,3.1378,3.1383,3.1211,3.1377,3.1376,3.1375,3.1374,3.1374,3.0688,3.0741,3.0793,3.0862,3.0903,3.0951,3.1004,3.1035,3.1097,3.1171,3.118,3.1259,3.1312,3.1405,3.144,3.1502,3.1485,3.151,3.1515,3.152,3.1522,3.137,3.1515,3.1515,3.1514,3.1514,3.1514,0,3.0823,3.0857,3.092,3.0991,3.1045,3.1036,3.1093,3.1138,3.1207,3.1257,3.1314,3.1398,3.1467,3.1508,3.1577,3.1618,3.1617,3.1635,3.1631,3.1638,3.1535,3.1512,3.1634,3.1634,3.1634,3.1634,3.1634,3.1634,3.09,3.0988,3.1005,3.1113,3.1146,3.1222,3.1255,3.1299,3.1338,3.1432,3.1488,3.1514,3.156,3.1632,3.1694,3.1704,3.1728,3.1747,3.1755,3.1658,3.1645,3.1633,3.1612,3.1753,3.1753,3.1852,3.1853,3.1854]},{"header":{"parameterUnit":"m.s-1","parameterCategory":1,"la1":30.2991,"la2":30.254,"lo1":-89.0895,"lo2":-89.0444,"dy":0.0017,"dx":0.0017,"nx":28,"ny":28,"refTime":"2025-06-17T09:00:00:Z","depth":0,"parameterNumber":3,"parameterNumberName":"V-component_of_WINDS"},"data":[0,0,0,0,0,0,0,0,0,0,0,0,0,0,0,0,0,0,0,0,0,0,0,0,0,0,0,0,0,0,0,0,0,0,0,0,0,0,0,0,0,0,0,0,0,0,0,0,0,0,0,0,0,0,0,0,0,0,1.8802,1.8803,0,1.8928,1.8929,1.8931,1.8925,1.8923,1.8921,1.892,1.9051,1.9056,1.9061,0,0,0,0,0,0,0,0,0,0,0,0,0,1.8556,1.8561,1.8801,1.8803,1.8805,1.8927,1.8929,1.8931,1.8925,1.8923,1.8921,1.8919,1.9049,1.9055,1.9061,0,0,0,0,0,0,0,0,0,0,0,0,0,1.8671,1.8562,1.8801,1.8816,1.8819,1.8927,1.8929,1.8931,1.8926,1.8923,1.892,1.8918,1.9047,1.9054,1.9062,1.9164,0,0,1.9086,1.9089,0,0,0,0,0,0,0,0,1.8664,1.868,1.8813,1.8816,1.8819,1.8908,1.8891,1.9009,1.8926,1.8885,1.892,1.8917,1.9005,1.9016,1.9046,1.917,1.9175,1.9086,1.9091,1.9094,1.9097,0,0,0,0,0,0,0,1.8656,1.8674,1.8851,1.8815,1.8818,1.8817,1.8831,1.8913,1.8959,1.8889,1.8889,1.8904,1.9007,1.9039,1.9049,1.9177,1.9086,1.9093,1.9098,1.9101,1.9389,1.9392,0,0,0,0,0,0,1.8645,1.8668,1.8847,1.8855,1.8733,1.8824,1.8839,1.8882,1.8958,1.8967,1.8906,1.8903,1.9027,1.904,1.9054,1.9177,1.9094,1.9102,1.9106,1.9386,1.939,1.9393,0,0,0,0,0,0,1.864,1.8661,1.8842,1.8761,1.8784,1.8831,1.888,1.8886,1.8918,1.8971,1.8979,1.893,1.9025,1.9043,1.9136,1.9181,1.9105,1.9112,1.9382,1.9387,1.9391,1.9424,0,0,0,0,0,0,1.8633,1.8659,1.8698,1.8762,1.8789,1.8922,1.8882,1.889,1.8931,1.8928,1.8996,1.9004,1.9024,1.9124,1.9144,1.919,1.9118,1.9379,1.9385,1.939,1.9419,1.9429,1.9438,0,0,0,0,0,1.8624,1.8703,1.87,1.8722,1.8838,1.8925,1.894,1.8961,1.8935,1.8974,1.9008,1.9002,1.9173,1.9134,1.9155,1.9205,1.9376,1.9383,1.9389,1.9415,1.9427,1.9437,0,0,0,0,0,0,1.8644,1.8712,1.8709,1.8811,1.8862,1.8924,1.8975,1.8974,1.9034,1.9029,1.9053,1.9068,1.9161,1.9192,1.9148,1.9307,1.9271,1.9282,1.9283,1.9295,1.9304,1.9295,1.9125,0,0,0,0,0,1.866,1.8724,1.878,1.8865,1.889,1.8928,1.8966,1.8978,1.9032,1.9054,1.9094,1.9147,1.9213,1.9256,1.9319,1.9423,1.9438,1.9468,1.9477,1.9485,1.9494,1.9551,1.9565,1.9415,1.9415,1.9415,0,0,1.8694,1.8739,1.8778,1.887,1.8911,1.8977,1.8946,1.9018,1.9067,1.9065,1.9155,1.9187,1.9247,1.9346,1.9392,1.9375,1.9539,1.9493,1.9499,1.9505,1.956,1.9574,1.9586,1.942,1.9419,1.9418,0,0,1.879,1.8831,1.8905,1.8946,1.9008,1.9032,1.905,1.9112,1.9133,1.9223,1.9222,1.9281,1.9394,1.9437,1.9473,1.9584,1.9581,1.9604,1.9653,1.9708,1.9719,1.973,1.9769,1.9783,1.9613,1.9614,1.9614,0,1.8825,1.8924,1.8944,1.9015,1.9055,1.9055,1.9131,1.917,1.925,1.9277,1.9258,1.9398,1.9439,1.9547,1.9574,1.9604,1.9625,1.9597,1.9716,1.9727,1.9737,1.9775,1.9789,1.9616,1.9616,1.9615,1.9615,0,1.8964,1.9033,1.9085,1.9161,1.9207,1.928,1.9311,1.9355,1.9362,1.9389,1.948,1.9529,1.9602,1.9628,1.9637,1.9738,1.9726,1.9711,1.9675,1.9753,1.9789,1.9804,1.9619,1.9619,1.9618,1.9617,0,0,1.9077,1.9161,1.9181,1.9214,1.9282,1.9336,1.9409,1.9479,1.9516,1.9571,1.9632,1.9727,1.9713,1.9754,1.9767,1.9815,1.9899,1.9794,1.9796,1.9812,2.0013,2.0024,2.004,1.9897,1.99,1.9902,2.0008,0,1.918,1.9309,1.9328,1.9442,1.9505,1.9505,1.9568,1.9617,1.9643,1.9701,1.973,1.9796,1.9773,1.9798,1.9846,1.9879,1.994,1.9871,1.9955,1.9957,1.9939,2.0059,2.0071,2.0168,2.0022,2.0024,2.0026,0,1.9317,1.9374,1.9494,1.9552,1.9579,1.9636,1.9701,1.9756,1.9811,1.9827,1.9872,1.9879,1.9954,1.9915,2.0019,1.9972,2.0007,2.0028,2.0032,2.0041,1.9997,2.0071,2.02,2.0215,2.0048,2.0046,2.0045,0,1.9387,1.9494,1.9579,1.9608,1.9678,1.9718,1.9749,1.98,1.9841,1.9898,1.9925,1.999,2.0026,2.0076,2.01,2.007,2.0203,2.0166,2.0218,2.0217,2.0246,2.0244,2.0383,2.0269,2.0269,2.0268,2.0268,0,1.95,1.9573,1.9611,1.9664,1.9746,1.9767,1.9847,1.9877,1.9923,1.9981,1.9985,2.004,2.0068,2.0127,2.0146,2.0229,2.0245,2.026,2.0264,2.026,2.0258,2.0283,2.0277,2.0272,2.0271,2.0271,2.027,0,1.9592,1.9621,1.9714,1.9771,1.9788,1.9845,1.9895,1.9946,1.9971,2.0044,2.0063,2.0103,2.0172,2.0201,2.0286,2.0299,2.0394,2.0393,2.0375,2.0377,2.0427,2.0422,2.0587,2.061,2.0481,2.0482,2.0483,0,1.9662,1.9718,1.9782,1.9821,1.9852,1.9915,1.9956,1.9979,2.0022,2.0087,2.013,2.0199,2.0256,2.0366,2.0403,2.0468,2.0468,2.0522,2.0478,2.0472,2.0469,2.0465,2.0471,2.053,2.0531,2.0532,2.0533,0,1.9784,1.9795,1.9853,1.9917,1.9966,2.0017,2.0067,2.0099,2.0129,2.0177,2.0247,2.0291,2.0377,2.0446,2.0512,2.0544,2.0544,2.0546,2.0562,2.0558,2.0545,2.0552,2.0397,2.0543,2.0542,2.0541,2.0541,2.054,1.9867,1.9916,1.9968,2.0033,2.0073,2.0119,2.017,2.0201,2.026,2.0331,2.0341,2.0416,2.0468,2.0558,2.0592,2.0652,2.0638,2.0661,2.0666,2.0671,2.0674,2.0535,2.0664,2.0664,2.0663,2.0663,2.0663,0,1.9988,2.0021,2.008,2.015,2.0201,2.0195,2.025,2.0293,2.0359,2.0408,2.0463,2.0543,2.0609,2.065,2.0717,2.0756,2.0758,2.0773,2.077,2.0777,2.0683,2.0663,2.077,2.077,2.077,2.077,2.077,2.077,2.0057,2.014,2.0157,2.0259,2.0292,2.0365,2.0397,2.044,2.0478,2.0568,2.0622,2.0649,2.0694,2.0764,2.0824,2.0834,2.0859,2.0875,2.0884,2.0795,2.0784,2.0774,2.0755,2.088,2.088,2.0974,2.0975,2.0975]}]]